Погода в Челябинске

Погода в Челябинске : погода сейчас, прогноз погоды и архив. Всё, что Вы хотите узнать о погоде в Челябинске!

Хотите узнать прогноз погоды в Челябинске? Тогда Вам сюда: Погода в Челябинске

Поиск расширенной информации на нашем сайте:

Другие новости

Новости СМИ2

Главная страница сайта

Новости сайта

03.07.2017

Напоминаем, что на нашем специализированном сайте Метеоцентр.Азия вы можете получить высокодетализированные автоматические прогнозы погоды по пунктам России, СНГ и мира в авиационном формате (включающие направление и скорость ветра, видимость, явления погоды, количество и форму облачности, нижнюю и верхнюю границу облачности).


Погода в Челябинске - сегодня

Время (UTC), дата Ветер
(°,м/с) 
Видим.   Явления Облачность Т
(°С)
Тd
(°С)
f(%) Тe
(°С)
Pmin
(гПа)
dP
(гПа)
Po
(мм)
O2
(г/м3)
Тmin Tmax R s Состояние
почвы
18 16.09.17 230 (ЮЗ) 4000 м    ясно 
+16.8 +10.2 65 +20  1014.4  0.5  740  279           
21 16.09.17 290 (З) 4000 м    ясно 
+15.2 +10.5 73 +18  1014.6  0.1  740  281           
00 17.09.17 290 (З) 4000 м    3/0 верхняя 
[Ci fib]
+13.2 +9.1 76 +14  1016.1  1.3  741  283           
06 17.09.17 290 (З) 20000 м    8/8 300 м кучево-дожд. 
[Cb calv]
+16.2 +6.7 53 +16  1017.4  0.8  742  281           
12 17.09.17 290 (З) 3{10}  20000 м    8/8 300 м кучево-дожд. 
[Cb calv]
+17 +4.5 43 +17  1016.1  -0.6  741  280           
18 17.09.17 250 (З) 4000 м    ясно 
+9.9 +6.1 77 +11  1017.5  0.4  742  287           
21 17.09.17 260 (З) 4000 м    ясно 
+10.8 +6.2 73 +12  1016.7  -0.7  741  286           
00 18.09.17 240 (ЮЗ) 4000 м    10/10 300 м кучево-дожд. 
[Cb calv]
+11.5 +6.1 69 +13  1016.2  -0.4  741  285           
06 18.09.17 290 (З) 4{11}  20000 м    6/6 300 м кучево-дожд. 
[Cb calv]
+14.2 +5.2 55 +14  1016.6  0.7  741  283           
09 18.09.17 300 (СЗ) 4{12}  20000 м    6/6 300 м кучево-дожд. 
[Cb calv]
+15.7 +4 46 +16  1016.7  0.8  742  282           
12 18.09.17 310 (СЗ) 4{11}  20000 м    8/0 верхняя 
[Ci fib]
+15.3 +2.9 43 +15  1017.9  0.6  742  283           
18 18.09.17 290 (З) 4000 м    ясно 
+6.8 +4.2 83 +8  1021.7  1.9  745  292           
21 18.09.17 280 (З) 4000 м    ясно 
+6.8 +3.7 81 +8  1022.2  0.5  745  292           
00 19.09.17 тихо ()   4000 м    10/10 300 м кучево-дожд. 
[Cb calv]
+8.1 +5.1 81 +8  1022.9  0.8  746  291           
03 19.09.17 220 (ЮЗ) 20000 м    10/10 300 м кучево-дожд. 
[Cb calv]
+9.6 +7.3 86 +10  1022.9  0.2  746  289  +6.8        сухая 
06 19.09.17 160 (Ю) 20000 м  {ливн. осадки}  9/9 300 м кучево-дожд. 
[Cb calv]
+13.6 +7.6 67 +14  1022.2  -0.3  746  285           
09 19.09.17 190 (Ю) 20000 м    6/6 300 м кучево-дожд. 
[Cb calv]
+20 +8.1 46 +20  1019  -2.6  744  278           
12 19.09.17 190 (Ю) 20000 м    8/5 300 м кучево-дожд., верхняя 
[Cb calv|Ci fib]
+22.3 +8.8 42 +22  1016.6  -2.1  742  275           
15 19.09.17 230 (ЮЗ) 4000 м    9/5 300 м кучево-дожд., верхняя 
[Cb calv|Ci fib]
+20.7 +8.9 47 +21  1016.3  -0.5  742  276    +22.6  0.0     
18 19.09.17 220 (ЮЗ) 4000 м    3/3 300 м кучево-дожд. 
[Cb calv]
+18.1 +9.1 56 +20  1016.6  0.1  742  279           
21 19.09.17 220 (ЮЗ) 4000 м    3/3 300 м кучево-дожд. 
[Cb calv]
+17.5 +7.8 53 +18  1016.1  -0.5  741  279           
00 20.09.17 210 (ЮЗ) 4000 м    8/8 300 м кучево-дожд. 
[Cb calv]
+17 +7.3 53 +17  1015.2  -1  741  280           
03 20.09.17 230 (ЮЗ) 20000 м    10/10 300 м кучево-дожд. 
[Cb calv]
+16.8 +7.5 54 +18  1014.9  -0.3  740  280  +16.1        сухая 
06 20.09.17 260 (З) 4-11{11}  20000 м    4/4 300 м кучево-дожд. 
[Cb calv]
+23.1 +6.3 34 +23  1014.4  0.1  740  274           
09 20.09.17 290 (З) 5-11{13}  20000 м    5/0 верхняя 
[Ci sp]
+24.5 +4.2 27 +25  1014.2  -0.1  740  273           
Время (UTC), дата Ветер
(°,м/с) 
Видим.   Явления Облачность Т
(°С)
Тd
(°С)
f(%) Тe
(°С)
Pmin
(гПа)
dP
(гПа)
Po
(мм)
O2
(г/м3)
Тmin Tmax R s Состояние
почвы

Для получения пояснительной информации подведите курсор к названию столбца.

ПОГОДА в Челябинске - архив

Всё, что Вы хотите узнать о погоде в Челябинске - удобно и подробно!

Выберите нужную дату (начиная с 1 января 2015* года) и нажмите кнопку "Найти".
Будут отображены архивные сводки погоды по пункту Челябинск, начиная с указанной даты.


Отображать данные в формате CSV (для использования в таблицах Excel)


Внимание! Наш архив погоды предназначен исключительно для личного некоммерческого использования в познавательных целях. Если Вам необходимы официальные справки о состоянии погоды (для производственных, юридических, коммерческих и т.п. целей), обращайтесь в органы Росгидромета.

*Примечание: данная дата относится к архиву по метеостанциям СССР (Россия, СНГ, Балтия).
Архив по метеостанциям Зарубежной Европы и Азии (кроме Китая) хранится 10 дней, по другим регионам земного шара (Китай, Африка, Америка, Австралия, Океания) - 1 день.

Челябинск - район местоположения метеостанции


Название, широта, долгота, высота метеостанции:
Челябинск (город) 55.2°ш. 61.3°д. 237 м над ур. моря [Российская Федерация]

Дополнительная информация

В oтличие oт бoльшинства пoгoдных сайтoв мы публикуем пoдрoбную метеoинфoрмацию в детальнoм прoфессиoнальнoм фoрмате.

Характеристики температуры и влажнoсти вoздуха измеряются на высoте 2 м в тени вдали oт зданий и деревьев.
Скoрoсть ветра измеряется на высoте 10 м (на урoвне рoста челoвека скoрoсть ветра ниже в 1.5-2 раза). Если метеoстанция нахoдится в гoрoде или в лесу, тo скoрoсть ветра занижена на 2-4 м/с пo сравнению с oткрытым местoм. Скoрoсть ветра над акватoриями крупных рек и oзёр, а также на вершинах хoлмoв на 2-5 м/с выше, чем в oбычных услoвиях.
Атмoсфернoе давление в разных тoчках местнoсти мoжет значительнo oтличаться oт давления на метеoстанции, в зависимoсти oт услoвий рельефа (при пoдъёме на 10 м давление пoнижается примернo на 1 мм рт.ст.).